www.pogodaiklimat.ru

Погода и климат >> Архив погоды >> Россия >> Магаданская область >> Кегали


ПОГОДА в Кегали

  • Прогноз погоды в Кегали
  • Монитор погоды в Кегали

АРХИВ ПОГОДЫ в Кегали

Время (UTC), дата Ветер
(напр.,м/с)
 
Видим.   Явления Облачность Т
(С)
Тd
(С)
f
(%)
Тe
(С)
Тes
(С)
Комфортность P
(гПа)
Po
(гПа)
Тmin
(С)
Tmax
(С)
R
(мм)
R24
(мм)
S
(см)
12 11.08 Ю 2 50 км 3/1 1000 м
[Sc Ci fib]
+4.9 +3.6 91 +2 +2 1013.2 968.0
15 11.08 С 2 50 км 6/3 1000 м
[Sc Ci fib]
+4.2 +3.5 95 +1 +1 1012.0 966.7
18 11.08 СВ 1 50 км 8/8 1000 м
[Sc]
+5.9 +4.1 88 +5 +5 1011.7 966.7
21 11.08 С 2 50 км 8/4 1000 м
[Sc Ci fib]
+11.8 +6.8 71 +11 +13 1008.7 964.7 +3.0
00 12.08 С 3 50 км 8/8 1000 м
[Sc]
+17.0 +5.6 47 +17 +19 1007.1 964.0
03 12.08 С 4 50 км 9/9 1000 м
[Sc]
+18.7 +5.5 42 +19 +19 1006.9 964.0
06 12.08 СВ 4 50 км 9 баллов +19.3 +4.6 38 +20 +20 1005.4 962.7
09 12.08 С 2 50 км 8/5 1000 м
[Sc Ci fib]
+16.1 +5.9 51 +16 +16 1004.7 961.5 +19.6
12 12.08 ЮВ 2 50 км 3/3 1000 м
[Sc]
+6.8 +5.1 89 +4 +4 1007.4 962.7
15 12.08 ЮВ 1 50 км 3/3 1000 м
[Sc]
+0.9 +0.3 96 -1 -1 1008.4 962.7
18 12.08 ЮВ 1 50 км 6/6 1000 м
[Sc]
+3.5 +2.6 94 +2 +2 1007.9 962.7
21 12.08 Ю 1 50 км 10/10 600 м
[Cb cap]
+8.8 +5.5 80 +8 +8 1004.8 960.6 +0.2
00 13.08 С 4 50 км 10/10 600 м
[Cb cap]
+17.0 +8.7 58 +17 +17 1002.9 960.0
03 13.08 СВ 5-12
{12}
50 км 10/10 600 м
[Cb cap]
+17.3 +8.0 54 +17 +17 1001.6 958.7
06 13.08 С 3
{20}
50 км в посл. час ливневой дождь {гроза} 8/5 600 м
[Cb cap Ac trans]
+11.2 +9.5 89 +9 +10 1005.1 961.3
09 13.08 С 3 50 км 9/9 600 м
[Cb cap]
+11.0 +9.2 89 +9 +9 1005.0 961.1 +18.5 9
12 13.08 СВ 1 50 км 8/8 600 м
[Cb cap]
+9.8 +7.6 86 +9 +9 1006.9 962.7
15 13.08 С 3 50 км 9/9 600 м
[Cb cap]
+9.5 +5.9 78 +7 +7 1008.3 964.0
18 13.08 С 1 50 км 9/9 600 м
[Cb cap]
+8.9 +6.2 83 +8 +8 1009.7 965.3
21 13.08 С 4 50 км 10/10 1000 м
[Sc]
+10.7 +6.8 77 +8 +8 1010.0 965.7 +8.4
00 14.08 С 5 50 км 10/10 600 м
[Cb cap]
+12.7 +7.2 69 +11 +11 1011.9 968.0
03 14.08 С 4 50 км 8/8 600 м
[Cb cap]
+14.5 +7.5 63 +13 +15 1013.0 969.3
06 14.08 С 5 50 км 7 баллов +16.2 +7.4 56 +15 +16 1012.8 969.3
09 14.08 С 3 50 км 8/5 1000 м
[Sc Ci fib]
+13.0 +7.4 69 +12 +12 1013.9 969.9 +16.6
12 14.08 С 2 50 км 6/6 1000 м
[Sc]
+7.6 +5.2 85 +6 +6 1018.3 973.3
15 14.08 С 2 50 км 8/8 600 м
[Cb cap]
+5.5 +4.3 92 +3 +3 1020.2 974.7
18 14.08 З 1 50 км 10/10 1000 м
[Sc]
+5.1 +4.5 96 +4 +4 1020.2 974.7
21 14.08 С 2 50 км 10/10 1000 м
[Sc]
+9.0 +5.6 79 +7 +7 1019.9 975.0 +2.9
00 15.08 СЗ 4 50 км 9/9 1000 м
[Sc]
+12.4 +4.9 60 +11 +11 1020.4 976.0
03 15.08 С 4 50 км ясно +15.7 +3.2 43 +15 +20 1019.9 976.0
06 15.08 С 3 50 км ясно +16.4 +0.9 35 +16 +18 1019.8 976.0
09 15.08 С 2 50 км 3/0
[Ci fib]
+11.9 +0.9 47 +11 +11 1021.9 977.3 +16.7
12 15.08 ЮЗ 1 50 км 3/0
[Ci fib]
-0.3 -1.3 93 -2 -2 1025.4 978.7
15 15.08 ЮВ 1 50 км местами туман поземный 3/0
[Ci fib]
-3.4 -3.8 97 -6 -6 1027.3 980.0
18 15.08 Ю 1 50 км ясно -5.0 -5.3 98 -8 -7 1029.0 981.3
21 15.08 штиль 0 50 км ясно +3.7 +0.7 81 +3 +7 1027.3 981.2 -5.4
00 16.08 СЗ 1 50 км ясно +14.2 +1.1 41 +15 +24 1025.7 981.3
03 16.08 СЗ 3 50 км ясно +17.5 -1.7 27 +18 +24 1023.8 980.0
06 16.08 СВ 2 50 км ясно +18.7 -0.7 27 +19 +22 1023.6 980.0
09 16.08 С 1 50 км ясно +12.6 +2.4 50 +13 +13 1023.3 978.7 +18.7
12 16.08 ЮВ 2 50 км 3/0
[Ci fib]
+7.2 +1.1 65 +5 +5 1026.8 981.3
15 16.08 ЮЗ 1 50 км 3/0
[Ci fib]
+1.9 -1.5 78 0 0 1029.2 982.7
18 16.08 ЮВ 1 50 км 3/0
[Ci fib]
-2.2 -3.0 94 -5 -4 1029.9 982.7
21 16.08 ЮВ 1 50 км ясно +8.5 +0.5 57 +8 +12 1028.3 982.8 -3.1
00 17.08 В 3 50 км 1/0
[Ci fib]
+14.2 -1.8 33 +14 +19 1027.2 982.7
03 17.08 В 3 50 км 4/3 1000 м
[Sc Ci fib]
+16.9 -0.3 31 +17 +21 1026.7 982.7
06 17.08 В 4 50 км 8/8 1000 м
[Sc]
+15.2 +1.0 38 +14 +15 1027.0 982.7
09 17.08 В 4 50 км 9/9 1000 м
[Sc]
+12.3 +0.4 44 +11 +11 1027.3 982.5 +17.3
12 17.08 ЮВ 3 50 км 6/6 1000 м
[Sc]
+10.0 +2.4 59 +8 +8 1029.2 984.0
15 17.08 Ю 1 50 км 8/8 600 м
[Cb cap]
+7.3 +3.5 77 +7 +7 1029.6 984.0
18 17.08 штиль 0 50 км 9 баллов +6.6 +4.3 85 +6 +6 1028.3 982.7
21 17.08 штиль 0 50 км 10/10 1000 м
[Sc]
+9.1 +4.8 74 +8 +8 1027.3 982.1 +5.8
00 18.08 штиль 0 50 км 10 баллов +12.2 +6.0 66 +12 +12 1027.4 982.7
03 18.08 В 2 50 км 10 баллов +14.5 +6.6 59 +14 +14 1025.6 981.3
06 18.08 Ю 2 50 км 9 баллов +14.9 +6.7 58 +15 +15 1025.5 981.3

 

Местоположение метеостанции Кегали (Магаданская область, Россия): широта 64.25 долгота 161.00 высота над уровнем моря 374 м.

В архиве по умолчанию представлена погода в Кегали за последнюю неделю. Архивные данные за месяц целиком и за предыдущие месяцы, начиная с января 2011 года, Вы можете получить, выбрав интересующий диапазон дат из раскрывающегося списка и нажав кнопку "Ввод!".


*Определитесь, кто Вы:
робот инопланетянин человек

Внимание! Время в таблицах - всемирное. Для получения местного времени необходимо прибавить поправку, которая равна 11 ч.

Смотрите также архив погоды в соседних городах и на ближайших метеорологических станциях:

Погода в Омолоне (Чукотка, Россия) (112 км)
Погода в Верхне-Пенжино (Камчатский край, Россия) (155 км)
Погода в Лабазной (Магаданская область, Россия) (162 км)
Погода в Эвенске (Магаданская область, Россия) (275 км)
Погода в Баимке (Чукотка, Россия) (294 км)
Погода в Омсукчане (Магаданская область, Россия) (323 км)
Погода в Каменском (Камчатский край, Россия) (325 км)
Погода в Балыгычане (Магаданская область, Россия) (337 км)
Погода в Коркодоне (Магаданская область, Россия) (344 км)
Погода в Слаутном (Камчатский край, Россия) (354 км)

Пояснения к столбцам:

Ветер - указаны скорость ветра в м/с - средняя за 10 мин, порывы в срок и между сроками (в фигурных скобках) и направление, откуда дует ветер: С - северный, СВ - северо-восточный, В - восточный, ЮВ - юго-восточный, Ю - южный, ЮЗ - юго-западный, З - западный, СЗ - северо-западный.
Видимость - горизонтальная дальность видимости в метрах или километрах. При видимости от 1 до 10 км при отсутствии осадков обычно наблюдается дымка, при ухудшении видимости до 1 км и менее - туман. В сухую погоду видимость может ухудшаться дымом, пылью или мглою.
Явления - указаны атмосферные явления, наблюдавшиеся в срок или в последний час перед сроком; фигурными скобками обозначены явления, наблюдавшиеся между сроками (за 1-3 часа до срока); квадратными скобками обозначены град или гололедные отложения с указанием их диаметра в мм.
Облачность - указаны через наклонную черту общая и нижняя облачность в баллах и высота нижней границы облаков в метрах; квадратными скобками обозначены формы облаков: Ci - перистые, Cs - перисто-слоистые, Cc - перисто-кучевые, Ac - высококучевые, As - высокослоистые, Sc - слоисто-кучевые, Ns - слоисто-дождевые, Cu - кучевые, Cb - кучево-дождевые. Подробнее классификацию облаков см. в Атласе облаков (PDF).
T - Температура воздуха - температура, измеренная на высоте 2 м над землей.
Td - Температура точки росы - температура, при понижении до которой содержащийся в воздухе водяной пар достигнет насыщения.
f - Относительная влажность воздуха - влажноcть воздуха, измеренная на высоте 2 м над землей.
Te - Эффективная температура - температура, которую ощущает одетый по сезону человек в тени. Характеристика душности погоды. При расчете учитывается влияние влажности воздуха и скорости ветра на теплоощущения человека.
Tes - Эффективная температура на солнце - температура, которую ощущает человек, с поправкой на солнечный нагрев. Характеристика знойности погоды. Зависит от высоты солнца над горизонтом, облачности и скорости ветра. Ночью, в пасмурную погоду, а также при ветре 12 м/с и более поправка равна нулю.
P - Атмосферное давление - приведенное к уровню моря атмосферное давление.
Po - Атмосферное давление - измеренное на уровне метеостанции атмосферное давление.
Tmin - Минимальная температура - минимум температуры воздуха на высоте 2 м над землей.
Tmax - Максимальная температура - максимум температуры воздуха на высоте 2 м над землей.
R - Количество осадков - Количество выпавших осадков за период времени, мм. При наведении курсора мыши на число - период времени, за который выпало указанное количество осадков.
R24 - Количество осадков - Количество выпавших осадков за 24 часа, мм.
S - Снежный покров - Высота снежного покрова, см. При наведении курсора мыши на число - состояние снежного покрова и степень покрытия местности в баллах.